Time,TemperatureF,DewpointF,PressureIn,WindDirection,WindDirectionDegrees,WindSpeedMPH,WindSpeedGustMPH,Humidity,HourlyPrecipIn,Conditions,Clouds,dailyrainin,SoftwareType,DateUTC
2013-12-19 00:01:00,19.0,16.0,29.55,SSW,202,0.0,0.0,85,0.00,,,0.00,Rainwise IP-100,2013-12-19 05:01:00,
2013-12-19 00:02:00,19.0,16.0,29.55,SSW,202,0.0,0.0,85,0.00,,,0.00,Rainwise IP-100,2013-12-19 05:02:00,
2013-12-19 00:05:00,19.1,16.0,29.55,SSW,202,0.0,0.0,85,0.00,,,0.00,Rainwise IP-100,2013-12-19 05:05:00,
2013-12-19 00:10:00,19.2,16.0,29.55,SSW,202,0.0,0.0,85,0.00,,,0.00,Rainwise IP-100,2013-12-19 05:10:00,
2013-12-19 00:15:00,19.3,16.0,29.55,SSW,202,0.0,1.0,85,0.00,,,0.00,Rainwise IP-100,2013-12-19 05:15:00,
2013-12-19 00:20:00,19.2,18.0,29.54,SSW,202,0.0,1.0,87,0.00,,,0.00,Rainwise IP-100,2013-12-19 05:20:00,
2013-12-19 00:25:00,19.0,18.0,29.54,SSW,202,1.4,1.4,87,0.00,,,0.00,Rainwise IP-100,2013-12-19 05:25:00,
2013-12-19 00:30:00,19.1,18.0,29.54,SSW,202,0.0,1.0,87,0.00,,,0.00,Rainwise IP-100,2013-12-19 05:30:00,
2013-12-19 00:35:00,19.2,18.0,29.54,SSW,202,0.0,1.0,88,0.00,,,0.00,Rainwise IP-100,2013-12-19 05:35:00,
2013-12-19 00:40:00,19.1,18.0,29.54,SSW,202,0.0,0.0,89,0.00,,,0.00,Rainwise IP-100,2013-12-19 05:40:00,
2013-12-19 00:46:00,18.9,18.0,29.55,SSW,202,0.0,0.0,88,0.00,,,0.00,Rainwise IP-100,2013-12-19 05:46:00,
2013-12-19 00:51:00,18.8,18.0,29.55,SSW,202,0.0,0.0,87,0.00,,,0.00,Rainwise IP-100,2013-12-19 05:51:00,
2013-12-19 00:56:00,18.9,18.0,29.55,SSW,202,0.0,0.0,88,0.00,,,0.00,Rainwise IP-100,2013-12-19 05:56:00,
2013-12-19 01:01:00,19.2,18.0,29.55,SSW,202,1.4,2.0,88,0.00,,,0.00,Rainwise IP-100,2013-12-19 06:01:00,
2013-12-19 01:06:00,19.2,18.0,29.54,SSW,202,2.6,2.6,89,0.00,,,0.00,Rainwise IP-100,2013-12-19 06:06:00,
2013-12-19 01:11:00,19.2,18.0,29.54,SSW,202,1.4,3.0,90,0.00,,,0.00,Rainwise IP-100,2013-12-19 06:11:00,
2013-12-19 01:16:00,19.2,18.0,29.54,SSW,202,0.0,1.0,91,0.00,,,0.00,Rainwise IP-100,2013-12-19 06:16:00,
2013-12-19 01:21:00,19.3,18.0,29.54,SSW,202,0.0,0.0,91,0.00,,,0.00,Rainwise IP-100,2013-12-19 06:21:00,
2013-12-19 01:26:00,19.4,18.0,29.55,SSW,202,0.0,0.0,90,0.00,,,0.00,Rainwise IP-100,2013-12-19 06:26:00,
2013-12-19 01:31:00,19.4,18.0,29.55,SSW,202,1.2,1.2,89,0.00,,,0.00,Rainwise IP-100,2013-12-19 06:31:00,
2013-12-19 01:36:00,19.5,18.0,29.55,SSW,202,0.0,1.0,90,0.00,,,0.00,Rainwise IP-100,2013-12-19 06:36:00,
2013-12-19 01:41:00,19.7,18.0,29.55,SSW,202,1.4,1.4,90,0.00,,,0.00,Rainwise IP-100,2013-12-19 06:41:00,
2013-12-19 01:46:00,19.7,18.0,29.55,SSW,202,0.0,1.0,89,0.00,,,0.00,Rainwise IP-100,2013-12-19 06:46:00,
2013-12-19 01:51:00,19.6,18.0,29.55,SSW,202,0.0,0.0,89,0.00,,,0.00,Rainwise IP-100,2013-12-19 06:51:00,
2013-12-19 01:56:00,19.6,18.0,29.56,SSW,202,0.0,0.0,87,0.00,,,0.00,Rainwise IP-100,2013-12-19 06:56:00,
2013-12-19 02:02:00,19.7,18.0,29.55,SSW,202,0.0,0.0,88,0.00,,,0.00,Rainwise IP-100,2013-12-19 07:02:00,
2013-12-19 02:07:00,19.7,18.0,29.55,SSW,202,1.4,1.4,89,0.00,,,0.00,Rainwise IP-100,2013-12-19 07:07:00,
2013-12-19 02:12:00,19.8,18.0,29.55,SSW,202,0.0,1.0,89,0.00,,,0.00,Rainwise IP-100,2013-12-19 07:12:00,
2013-12-19 02:17:00,19.9,18.0,29.55,SSW,202,1.4,1.4,90,0.00,,,0.00,Rainwise IP-100,2013-12-19 07:17:00,
2013-12-19 02:22:00,20.0,18.0,29.55,SSW,202,0.0,1.0,89,0.00,,,0.00,Rainwise IP-100,2013-12-19 07:22:00,
2013-12-19 02:27:00,20.1,18.0,29.56,SSW,202,0.0,0.0,89,0.00,,,0.00,Rainwise IP-100,2013-12-19 07:27:00,
2013-12-19 02:32:00,20.1,18.0,29.56,SSW,202,0.0,0.0,89,0.00,,,0.00,Rainwise IP-100,2013-12-19 07:32:00,
2013-12-19 02:37:00,20.1,18.0,29.56,SSW,202,0.0,0.0,89,0.00,,,0.00,Rainwise IP-100,2013-12-19 07:37:00,
2013-12-19 02:42:00,20.0,18.0,29.57,SSW,202,0.0,0.0,89,0.00,,,0.00,Rainwise IP-100,2013-12-19 07:42:00,
2013-12-19 02:47:00,20.0,18.0,29.56,SSW,202,0.0,2.0,89,0.00,,,0.00,Rainwise IP-100,2013-12-19 07:47:00,
2013-12-19 02:52:00,20.0,18.0,29.56,SSW,202,0.0,0.0,88,0.00,,,0.00,Rainwise IP-100,2013-12-19 07:52:00,
2013-12-19 02:57:00,20.1,18.0,29.55,SSW,202,0.0,1.0,88,0.00,,,0.00,Rainwise IP-100,2013-12-19 07:57:00,
2013-12-19 03:02:00,20.3,18.0,29.55,SSW,202,0.0,0.0,90,0.00,,,0.00,Rainwise IP-100,2013-12-19 08:02:00,
2013-12-19 03:07:00,20.4,18.0,29.56,SSW,202,0.0,0.0,90,0.00,,,0.00,Rainwise IP-100,2013-12-19 08:07:00,
2013-12-19 03:12:00,20.4,18.0,29.55,SSW,202,0.0,0.0,89,0.00,,,0.00,Rainwise IP-100,2013-12-19 08:12:00,
2013-12-19 03:18:00,20.6,18.0,29.56,SSW,202,0.0,1.0,88,0.00,,,0.00,Rainwise IP-100,2013-12-19 08:18:00,
2013-12-19 03:23:00,20.8,18.0,29.56,SSW,202,1.2,0.0,88,0.00,,,0.00,Rainwise IP-100,2013-12-19 08:23:00,
2013-12-19 03:28:00,20.9,18.0,29.56,SSW,202,0.0,1.0,87,0.00,,,0.00,Rainwise IP-100,2013-12-19 08:28:00,
2013-12-19 03:33:00,20.8,18.0,29.56,SSW,202,0.0,0.0,88,0.00,,,0.00,Rainwise IP-100,2013-12-19 08:33:00,
2013-12-19 03:38:00,20.7,18.0,29.56,SSW,202,1.6,1.6,87,0.00,,,0.00,Rainwise IP-100,2013-12-19 08:38:00,
2013-12-19 03:43:00,20.6,18.0,29.56,SSW,202,3.0,3.0,88,0.00,,,0.00,Rainwise IP-100,2013-12-19 08:43:00,
2013-12-19 03:48:00,20.3,18.0,29.56,SSW,202,1.4,3.0,90,0.00,,,0.00,Rainwise IP-100,2013-12-19 08:48:00,
2013-12-19 03:53:00,20.2,18.0,29.56,SSW,202,0.0,1.0,91,0.00,,,0.00,Rainwise IP-100,2013-12-19 08:53:00,
2013-12-19 03:58:00,20.1,18.0,29.56,SSW,202,0.0,1.0,92,0.00,,,0.00,Rainwise IP-100,2013-12-19 08:58:00,
2013-12-19 04:03:00,20.2,18.0,29.55,SSW,202,1.4,1.4,92,0.00,,,0.00,Rainwise IP-100,2013-12-19 09:03:00,
2013-12-19 04:08:00,20.3,18.0,29.56,SSW,202,0.0,1.0,92,0.00,,,0.00,Rainwise IP-100,2013-12-19 09:08:00,
2013-12-19 04:13:00,20.3,18.0,29.56,SSW,202,1.2,1.2,92,0.00,,,0.00,Rainwise IP-100,2013-12-19 09:13:00,
2013-12-19 04:18:00,20.2,18.0,29.55,NNW,337,1.2,2.0,92,0.00,,,0.00,Rainwise IP-100,2013-12-19 09:18:00,
2013-12-19 04:23:00,20.1,18.0,29.55,NNW,337,1.9,3.0,92,0.00,,,0.00,Rainwise IP-100,2013-12-19 09:23:00,
2013-12-19 04:28:00,20.1,18.0,29.55,NNW,337,0.0,2.0,93,0.00,,,0.00,Rainwise IP-100,2013-12-19 09:28:00,
2013-12-19 04:34:00,20.3,18.0,29.55,NNW,337,0.0,0.0,93,0.00,,,0.00,Rainwise IP-100,2013-12-19 09:34:00,
2013-12-19 04:39:00,20.2,18.0,29.55,NNW,337,0.0,0.0,92,0.00,,,0.00,Rainwise IP-100,2013-12-19 09:39:00,
2013-12-19 04:44:00,20.0,18.0,29.54,NNW,337,0.0,0.0,92,0.00,,,0.00,Rainwise IP-100,2013-12-19 09:44:00,
2013-12-19 04:49:00,19.6,18.0,29.54,NNW,337,0.0,0.0,92,0.00,,,0.00,Rainwise IP-100,2013-12-19 09:49:00,
2013-12-19 04:54:00,19.3,18.0,29.55,NNW,337,1.6,1.6,92,0.00,,,0.00,Rainwise IP-100,2013-12-19 09:54:00,
2013-12-19 04:59:00,19.2,18.0,29.55,NNW,337,0.0,2.0,92,0.00,,,0.00,Rainwise IP-100,2013-12-19 09:59:00,
2013-12-19 05:04:00,19.1,18.0,29.55,NNW,337,0.0,1.0,92,0.00,,,0.00,Rainwise IP-100,2013-12-19 10:04:00,
2013-12-19 05:09:00,18.8,18.0,29.55,NNW,337,0.0,0.0,93,0.00,,,0.00,Rainwise IP-100,2013-12-19 10:09:00,
2013-12-19 05:14:00,18.7,18.0,29.55,NNW,337,0.0,0.0,93,0.00,,,0.00,Rainwise IP-100,2013-12-19 10:14:00,
2013-12-19 05:19:00,18.6,18.0,29.55,WSW,247,0.0,1.0,93,0.00,,,0.00,Rainwise IP-100,2013-12-19 10:19:00,
2013-12-19 05:24:00,18.6,18.0,29.54,WSW,247,0.0,1.0,93,0.00,,,0.00,Rainwise IP-100,2013-12-19 10:24:00,
2013-12-19 05:29:00,18.6,18.0,29.55,WSW,247,0.0,0.0,93,0.00,,,0.00,Rainwise IP-100,2013-12-19 10:29:00,
2013-12-19 05:34:00,18.6,18.0,29.55,WSW,247,0.0,1.0,94,0.00,,,0.00,Rainwise IP-100,2013-12-19 10:34:00,
2013-12-19 05:39:00,18.6,18.0,29.55,WSW,247,0.0,1.0,93,0.00,,,0.00,Rainwise IP-100,2013-12-19 10:39:00,
2013-12-19 05:44:00,18.7,18.0,29.55,WSW,247,0.0,0.0,93,0.00,,,0.00,Rainwise IP-100,2013-12-19 10:44:00,
2013-12-19 05:50:00,18.7,18.0,29.54,WSW,247,0.0,0.0,93,0.00,,,0.00,Rainwise IP-100,2013-12-19 10:50:00,
2013-12-19 05:55:00,18.7,18.0,29.55,WSW,247,0.0,0.0,93,0.00,,,0.00,Rainwise IP-100,2013-12-19 10:55:00,
2013-12-19 06:00:00,18.7,18.0,29.55,WSW,247,0.0,0.0,92,0.00,,,0.00,Rainwise IP-100,2013-12-19 11:00:00,
2013-12-19 06:05:00,18.8,18.0,29.54,WSW,247,0.0,0.0,92,0.00,,,0.00,Rainwise IP-100,2013-12-19 11:05:00,
2013-12-19 06:10:00,19.0,18.0,29.54,WSW,247,0.0,1.0,92,0.00,,,0.00,Rainwise IP-100,2013-12-19 11:10:00,
2013-12-19 06:15:00,19.1,18.0,29.54,WSW,247,1.2,1.2,92,0.00,,,0.00,Rainwise IP-100,2013-12-19 11:15:00,
2013-12-19 06:20:00,19.2,18.0,29.54,WSW,247,0.0,1.0,92,0.00,,,0.00,Rainwise IP-100,2013-12-19 11:20:00,
2013-12-19 06:25:00,19.3,18.0,29.54,WSW,247,0.0,1.0,92,0.00,,,0.00,Rainwise IP-100,2013-12-19 11:25:00,
2013-12-19 06:30:00,19.4,18.0,29.53,WSW,247,0.0,0.0,91,0.00,,,0.00,Rainwise IP-100,2013-12-19 11:30:00,
2013-12-19 06:35:00,19.6,18.0,29.54,WSW,247,0.0,1.0,91,0.00,,,0.00,Rainwise IP-100,2013-12-19 11:35:00,
2013-12-19 06:40:00,19.7,18.0,29.53,WSW,247,0.0,0.0,91,0.00,,,0.00,Rainwise IP-100,2013-12-19 11:40:00,
2013-12-19 06:45:00,19.7,18.0,29.53,WSW,247,0.0,1.0,91,0.00,,,0.00,Rainwise IP-100,2013-12-19 11:45:00,
2013-12-19 06:50:00,19.7,18.0,29.53,WSW,247,0.0,0.0,91,0.00,,,0.00,Rainwise IP-100,2013-12-19 11:50:00,
2013-12-19 06:55:00,19.7,18.0,29.53,WSW,247,0.0,1.0,91,0.00,,,0.00,Rainwise IP-100,2013-12-19 11:55:00,
2013-12-19 07:00:00,19.9,18.0,29.52,WSW,247,0.0,0.0,91,0.00,,,0.00,Rainwise IP-100,2013-12-19 12:00:00,
2013-12-19 07:06:00,20.1,18.0,29.53,WSW,247,0.0,1.0,91,0.00,,,0.00,Rainwise IP-100,2013-12-19 12:06:00,
2013-12-19 07:11:00,20.2,18.0,29.52,WSW,247,0.0,0.0,91,0.00,,,0.00,Rainwise IP-100,2013-12-19 12:11:00,
2013-12-19 07:16:00,20.3,18.0,29.52,WSW,247,0.0,0.0,90,0.00,,,0.00,Rainwise IP-100,2013-12-19 12:16:00,
2013-12-19 07:21:00,20.4,18.0,29.52,WSW,247,0.0,0.0,89,0.00,,,0.00,Rainwise IP-100,2013-12-19 12:21:00,
2013-12-19 07:26:00,20.5,18.0,29.52,WSW,247,0.0,1.0,89,0.00,,,0.00,Rainwise IP-100,2013-12-19 12:26:00,
2013-12-19 07:31:00,20.6,18.0,29.52,WSW,247,0.0,0.0,89,0.00,,,0.00,Rainwise IP-100,2013-12-19 12:31:00,
2013-12-19 07:36:00,20.6,18.0,29.52,WSW,247,0.0,0.0,90,0.00,,,0.00,Rainwise IP-100,2013-12-19 12:36:00,
2013-12-19 07:41:00,20.7,18.0,29.52,WSW,247,0.0,1.0,90,0.00,,,0.00,Rainwise IP-100,2013-12-19 12:41:00,
2013-12-19 07:46:00,20.8,18.0,29.52,SW,225,0.0,0.0,90,0.00,,,0.00,Rainwise IP-100,2013-12-19 12:46:00,
2013-12-19 07:51:00,20.9,18.0,29.52,SW,225,0.0,0.0,91,0.00,,,0.00,Rainwise IP-100,2013-12-19 12:51:00,
2013-12-19 07:56:00,21.0,18.0,29.52,SW,225,0.0,1.0,91,0.00,,,0.00,Rainwise IP-100,2013-12-19 12:56:00,
2013-12-19 08:01:00,21.2,18.0,29.53,SW,225,0.0,0.0,91,0.00,,,0.00,Rainwise IP-100,2013-12-19 13:01:00,
2013-12-19 08:06:00,21.4,18.0,29.53,SW,225,0.0,0.0,91,0.00,,,0.00,Rainwise IP-100,2013-12-19 13:06:00,
2013-12-19 08:11:00,21.3,18.0,29.52,SW,225,0.0,0.0,91,0.00,,,0.00,Rainwise IP-100,2013-12-19 13:11:00,
2013-12-19 08:16:00,21.3,18.0,29.52,SW,225,0.0,0.0,92,0.00,,,0.00,Rainwise IP-100,2013-12-19 13:16:00,
2013-12-19 08:22:00,21.5,21.0,29.52,SW,225,0.0,0.0,92,0.00,,,0.00,Rainwise IP-100,2013-12-19 13:22:00,
2013-12-19 08:27:00,21.7,21.0,29.52,SW,225,0.0,0.0,91,0.00,,,0.00,Rainwise IP-100,2013-12-19 13:27:00,
2013-12-19 08:32:00,21.8,21.0,29.52,SW,225,0.0,0.0,91,0.00,,,0.00,Rainwise IP-100,2013-12-19 13:32:00,
2013-12-19 08:37:00,21.9,21.0,29.52,SW,225,0.0,0.0,92,0.00,,,0.00,Rainwise IP-100,2013-12-19 13:37:00,
2013-12-19 08:42:00,22.0,21.0,29.52,SW,225,0.0,0.0,92,0.00,,,0.00,Rainwise IP-100,2013-12-19 13:42:00,
2013-12-19 08:47:00,22.1,21.0,29.52,SW,225,0.0,0.0,92,0.00,,,0.00,Rainwise IP-100,2013-12-19 13:47:00,
2013-12-19 08:52:00,22.3,21.0,29.52,SW,225,0.0,0.0,92,0.00,,,0.00,Rainwise IP-100,2013-12-19 13:52:00,
2013-12-19 08:57:00,22.7,21.0,29.52,SW,225,0.0,0.0,92,0.00,,,0.00,Rainwise IP-100,2013-12-19 13:57:00,
2013-12-19 09:02:00,23.2,21.0,29.52,SW,225,0.0,1.0,92,0.00,,,0.00,Rainwise IP-100,2013-12-19 14:02:00,
2013-12-19 09:07:00,23.5,23.0,29.52,SW,225,0.0,2.0,92,0.00,,,0.00,Rainwise IP-100,2013-12-19 14:07:00,
2013-12-19 09:12:00,24.0,23.0,29.51,SW,225,0.0,1.0,92,0.00,,,0.00,Rainwise IP-100,2013-12-19 14:12:00,
2013-12-19 09:17:00,24.3,23.0,29.52,SW,225,0.0,0.0,92,0.00,,,0.00,Rainwise IP-100,2013-12-19 14:17:00,
2013-12-19 09:22:00,24.5,24.0,29.51,SW,225,0.0,0.0,91,0.00,,,0.00,Rainwise IP-100,2013-12-19 14:22:00,
2013-12-19 09:27:00,24.8,24.0,29.52,NNW,337,1.9,2.0,91,0.00,,,0.00,Rainwise IP-100,2013-12-19 14:27:00,
2013-12-19 09:32:00,25.1,24.0,29.52,NNW,337,0.0,1.0,91,0.00,,,0.00,Rainwise IP-100,2013-12-19 14:32:00,
2013-12-19 09:38:00,25.4,24.0,29.52,NNW,337,0.0,1.0,91,0.00,,,0.00,Rainwise IP-100,2013-12-19 14:38:00,
2013-12-19 09:43:00,25.7,24.0,29.52,WNW,292,0.0,1.0,91,0.00,,,0.00,Rainwise IP-100,2013-12-19 14:43:00,
2013-12-19 09:48:00,25.9,24.0,29.52,SW,225,1.2,4.0,91,0.00,,,0.00,Rainwise IP-100,2013-12-19 14:48:00,
2013-12-19 09:53:00,26.4,24.0,29.52,SW,225,3.5,8.0,90,0.00,,,0.00,Rainwise IP-100,2013-12-19 14:53:00,
2013-12-19 09:58:00,26.8,24.0,29.51,SSW,202,7.7,9.0,88,0.00,,,0.00,Rainwise IP-100,2013-12-19 14:58:00,
2013-12-19 10:03:00,27.3,24.0,29.51,SW,225,3.7,8.0,87,0.00,,,0.00,Rainwise IP-100,2013-12-19 15:03:00,
2013-12-19 10:08:00,27.8,24.0,29.51,SSW,202,7.0,11.0,86,0.00,,,0.00,Rainwise IP-100,2013-12-19 15:08:00,
2013-12-19 10:13:00,28.2,24.0,29.51,South,180,5.6,10.0,85,0.00,,,0.00,Rainwise IP-100,2013-12-19 15:13:00,
2013-12-19 10:18:00,28.6,24.0,29.51,SW,225,7.0,15.0,83,0.00,,,0.00,Rainwise IP-100,2013-12-19 15:18:00,
2013-12-19 10:23:00,28.9,24.0,29.50,SSW,202,9.8,12.0,82,0.00,,,0.00,Rainwise IP-100,2013-12-19 15:23:00,
2013-12-19 10:28:00,29.1,24.0,29.50,SSW,202,8.2,14.0,81,0.00,,,0.00,Rainwise IP-100,2013-12-19 15:28:00,
2013-12-19 10:33:00,29.3,24.0,29.50,SSW,202,6.3,14.0,81,0.00,,,0.00,Rainwise IP-100,2013-12-19 15:33:00,
2013-12-19 10:38:00,29.5,26.0,29.50,SW,225,4.7,10.0,80,0.00,,,0.00,Rainwise IP-100,2013-12-19 15:38:00,
2013-12-19 10:43:00,29.6,26.0,29.50,West,270,5.1,7.0,80,0.00,,,0.00,Rainwise IP-100,2013-12-19 15:43:00,
2013-12-19 10:48:00,29.8,24.0,29.50,SW,225,9.1,11.0,79,0.00,,,0.00,Rainwise IP-100,2013-12-19 15:48:00,
2013-12-19 10:54:00,29.9,24.0,29.50,SSW,202,7.0,11.0,79,0.00,,,0.00,Rainwise IP-100,2013-12-19 15:54:00,
2013-12-19 10:59:00,30.1,24.0,29.49,SSW,202,7.0,13.0,78,0.00,,,0.00,Rainwise IP-100,2013-12-19 15:59:00,
2013-12-19 11:04:00,30.1,24.0,29.49,SW,225,4.9,9.0,78,0.00,,,0.00,Rainwise IP-100,2013-12-19 16:04:00,
2013-12-19 11:09:00,30.2,24.0,29.49,SSW,202,5.6,12.0,77,0.00,,,0.00,Rainwise IP-100,2013-12-19 16:09:00,
2013-12-19 11:14:00,30.4,24.0,29.49,South,180,6.3,11.0,77,0.00,,,0.00,Rainwise IP-100,2013-12-19 16:14:00,
2013-12-19 11:19:00,30.5,24.0,29.48,SSW,202,3.0,10.0,76,0.00,,,0.00,Rainwise IP-100,2013-12-19 16:19:00,
2013-12-19 11:24:00,30.6,24.0,29.48,SSW,202,5.6,9.0,76,0.00,,,0.00,Rainwise IP-100,2013-12-19 16:24:00,
2013-12-19 11:29:00,30.7,24.0,29.49,SW,225,3.7,8.0,76,0.00,,,0.00,Rainwise IP-100,2013-12-19 16:29:00,
2013-12-19 11:34:00,30.9,24.0,29.48,South,180,4.9,7.0,76,0.00,,,0.00,Rainwise IP-100,2013-12-19 16:34:00,
2013-12-19 11:39:00,30.9,24.0,29.48,SSW,202,5.8,8.0,76,0.00,,,0.00,Rainwise IP-100,2013-12-19 16:39:00,
2013-12-19 11:44:00,30.9,24.0,29.49,SSW,202,6.8,9.0,75,0.00,,,0.00,Rainwise IP-100,2013-12-19 16:44:00,
2013-12-19 11:49:00,31.0,24.0,29.48,SSW,202,6.8,9.0,75,0.00,,,0.00,Rainwise IP-100,2013-12-19 16:49:00,
2013-12-19 11:54:00,31.2,24.0,29.48,WSW,247,3.5,7.0,74,0.00,,,0.00,Rainwise IP-100,2013-12-19 16:54:00,
2013-12-19 11:59:00,31.5,24.0,29.48,SSW,202,4.9,7.0,74,0.00,,,0.00,Rainwise IP-100,2013-12-19 16:59:00,
2013-12-19 12:04:00,31.9,24.0,29.48,SSW,202,9.6,9.6,73,0.00,,,0.00,Rainwise IP-100,2013-12-19 17:04:00,
2013-12-19 12:10:00,32.3,24.0,29.47,SSW,202,9.3,12.0,72,0.00,,,0.00,Rainwise IP-100,2013-12-19 17:10:00,
2013-12-19 12:15:00,32.5,24.0,29.46,SW,225,5.1,12.0,71,0.00,,,0.00,Rainwise IP-100,2013-12-19 17:15:00,
2013-12-19 12:20:00,32.7,24.0,29.47,SSW,202,6.3,8.0,71,0.00,,,0.00,Rainwise IP-100,2013-12-19 17:20:00,
2013-12-19 12:25:00,32.9,24.0,29.47,SSW,202,7.7,11.0,71,0.00,,,0.00,Rainwise IP-100,2013-12-19 17:25:00,
2013-12-19 12:30:00,33.0,24.0,29.47,WSW,247,7.5,11.0,69,0.00,,,0.00,Rainwise IP-100,2013-12-19 17:30:00,
2013-12-19 12:35:00,33.1,24.0,29.47,South,180,8.6,11.0,69,0.00,,,0.00,Rainwise IP-100,2013-12-19 17:35:00,
2013-12-19 12:40:00,33.1,24.0,29.47,SW,225,9.3,9.3,69,0.00,,,0.00,Rainwise IP-100,2013-12-19 17:40:00,
2013-12-19 12:45:00,33.1,24.0,29.46,SSE,157,2.6,10.0,69,0.00,,,0.00,Rainwise IP-100,2013-12-19 17:45:00,
2013-12-19 12:50:00,33.3,24.0,29.47,West,270,3.3,3.3,69,0.00,,,0.00,Rainwise IP-100,2013-12-19 17:50:00,
2013-12-19 12:55:00,33.5,26.0,29.47,South,180,4.4,7.0,68,0.00,,,0.00,Rainwise IP-100,2013-12-19 17:55:00,
2013-12-19 13:00:00,33.6,24.0,29.47,SE,135,0.0,8.0,67,0.00,,,0.00,Rainwise IP-100,2013-12-19 18:00:00,
2013-12-19 13:05:00,33.8,24.0,29.47,South,180,3.3,6.0,67,0.00,,,0.00,Rainwise IP-100,2013-12-19 18:05:00,
2013-12-19 13:10:00,33.9,24.0,29.47,SSW,202,5.4,11.0,67,0.00,,,0.00,Rainwise IP-100,2013-12-19 18:10:00,
2013-12-19 13:15:00,34.0,24.0,29.46,SSW,202,5.4,7.0,67,0.00,,,0.00,Rainwise IP-100,2013-12-19 18:15:00,
2013-12-19 13:20:00,34.2,24.0,29.46,SW,225,4.4,8.0,67,0.00,,,0.00,Rainwise IP-100,2013-12-19 18:20:00,
2013-12-19 13:25:00,34.3,24.0,29.46,SW,225,6.1,7.0,67,0.00,,,0.00,Rainwise IP-100,2013-12-19 18:25:00,
2013-12-19 13:30:00,34.4,24.0,29.46,SW,225,3.5,8.0,66,0.00,,,0.00,Rainwise IP-100,2013-12-19 18:30:00,
2013-12-19 13:35:00,34.6,24.0,29.46,SSW,202,5.8,6.0,66,0.00,,,0.00,Rainwise IP-100,2013-12-19 18:35:00,
2013-12-19 13:40:00,34.6,24.0,29.47,SW,225,0.0,7.0,66,0.00,,,0.00,Rainwise IP-100,2013-12-19 18:40:00,
2013-12-19 13:46:00,34.6,24.0,29.47,SSW,202,3.0,4.0,65,0.00,,,0.00,Rainwise IP-100,2013-12-19 18:46:00,
2013-12-19 13:51:00,34.6,24.0,29.46,SSW,202,1.6,3.0,66,0.00,,,0.00,Rainwise IP-100,2013-12-19 18:51:00,
2013-12-19 13:56:00,34.7,24.0,29.46,SSW,202,0.0,2.0,66,0.00,,,0.00,Rainwise IP-100,2013-12-19 18:56:00,
2013-12-19 14:01:00,34.7,24.0,29.46,SSW,202,0.0,1.0,67,0.00,,,0.00,Rainwise IP-100,2013-12-19 19:01:00,
2013-12-19 14:06:00,34.8,26.0,29.46,NNE,22,2.6,3.0,68,0.00,,,0.00,Rainwise IP-100,2013-12-19 19:06:00,
2013-12-19 14:11:00,34.6,26.0,29.46,NNE,22,2.1,3.0,68,0.00,,,0.00,Rainwise IP-100,2013-12-19 19:11:00,
2013-12-19 14:16:00,34.5,24.0,29.47,NNE,22,2.6,2.6,67,0.00,,,0.00,Rainwise IP-100,2013-12-19 19:16:00,
2013-12-19 14:21:00,34.6,24.0,29.47,ENE,67,2.3,4.0,67,0.00,,,0.00,Rainwise IP-100,2013-12-19 19:21:00,
2013-12-19 14:26:00,34.6,24.0,29.47,NE,45,0.0,4.0,67,0.00,,,0.00,Rainwise IP-100,2013-12-19 19:26:00,
2013-12-19 14:31:00,34.9,24.0,29.48,WSW,247,2.6,2.6,67,0.00,,,0.00,Rainwise IP-100,2013-12-19 19:31:00,
2013-12-19 14:36:00,35.2,24.0,29.48,South,180,0.0,3.0,66,0.00,,,0.00,Rainwise IP-100,2013-12-19 19:36:00,
2013-12-19 14:41:00,35.4,24.0,29.48,WSW,247,1.6,2.0,65,0.00,,,0.00,Rainwise IP-100,2013-12-19 19:41:00,
2013-12-19 14:46:00,35.6,24.0,29.48,SW,225,0.0,3.0,64,0.00,,,0.00,Rainwise IP-100,2013-12-19 19:46:00,
2013-12-19 14:51:00,35.7,24.0,29.48,SSW,202,0.0,1.0,64,0.00,,,0.00,Rainwise IP-100,2013-12-19 19:51:00,
2013-12-19 14:56:00,35.5,26.0,29.49,SW,225,2.1,2.1,65,0.00,,,0.00,Rainwise IP-100,2013-12-19 19:56:00,
2013-12-19 15:02:00,35.3,24.0,29.49,SSW,202,2.1,3.0,65,0.00,,,0.00,Rainwise IP-100,2013-12-19 20:02:00,
2013-12-19 15:07:00,35.4,24.0,29.49,SSW,202,0.0,2.0,65,0.00,,,0.00,Rainwise IP-100,2013-12-19 20:07:00,
2013-12-19 15:12:00,35.5,26.0,29.49,SSW,202,0.0,1.0,66,0.00,,,0.00,Rainwise IP-100,2013-12-19 20:12:00,
2013-12-19 15:17:00,35.5,26.0,29.49,SSW,202,1.2,2.0,65,0.00,,,0.00,Rainwise IP-100,2013-12-19 20:17:00,
2013-12-19 15:22:00,35.5,26.0,29.49,SSW,202,0.0,2.0,65,0.00,,,0.00,Rainwise IP-100,2013-12-19 20:22:00,
2013-12-19 15:27:00,35.2,24.0,29.50,SSW,202,0.0,1.0,66,0.00,,,0.00,Rainwise IP-100,2013-12-19 20:27:00,
2013-12-19 15:32:00,34.7,26.0,29.51,SSW,202,1.2,2.0,68,0.00,,,0.00,Rainwise IP-100,2013-12-19 20:32:00,
2013-12-19 15:37:00,34.4,26.0,29.50,SSW,202,1.2,2.0,70,0.00,,,0.00,Rainwise IP-100,2013-12-19 20:37:00,
2013-12-19 15:42:00,34.2,26.0,29.50,NNW,337,1.9,4.0,71,0.06,,,0.01,Rainwise IP-100,2013-12-19 20:42:00,
2013-12-19 15:47:00,33.9,28.0,29.51,NNW,337,0.0,3.0,73,0.06,,,0.01,Rainwise IP-100,2013-12-19 20:47:00,
2013-12-19 15:52:00,33.9,28.0,29.51,West,270,0.0,4.0,74,0.00,,,0.01,Rainwise IP-100,2013-12-19 20:52:00,
2013-12-19 15:58:00,33.9,28.0,29.51,WSW,247,3.0,3.0,74,0.00,,,0.01,Rainwise IP-100,2013-12-19 20:58:00,
2013-12-19 16:03:00,33.8,28.0,29.51,SW,225,1.6,3.0,74,0.00,,,0.01,Rainwise IP-100,2013-12-19 21:03:00,
2013-12-19 16:08:00,33.6,28.0,29.52,SW,225,0.0,2.0,75,0.00,,,0.01,Rainwise IP-100,2013-12-19 21:08:00,
2013-12-19 16:13:00,33.7,28.0,29.52,SW,225,2.8,4.0,75,0.00,,,0.01,Rainwise IP-100,2013-12-19 21:13:00,
2013-12-19 16:18:00,34.1,28.0,29.52,SSW,202,2.6,3.0,74,0.00,,,0.01,Rainwise IP-100,2013-12-19 21:18:00,
2013-12-19 16:23:00,34.0,28.0,29.52,SSW,202,0.0,2.0,74,0.00,,,0.01,Rainwise IP-100,2013-12-19 21:23:00,
2013-12-19 16:28:00,33.8,28.0,29.52,SSW,202,0.0,1.0,75,0.00,,,0.01,Rainwise IP-100,2013-12-19 21:28:00,
2013-12-19 16:33:00,33.7,28.0,29.52,NNW,337,1.4,2.0,76,0.00,,,0.01,Rainwise IP-100,2013-12-19 21:33:00,
2013-12-19 16:38:00,33.6,28.0,29.52,NNW,337,1.6,2.0,77,0.00,,,0.01,Rainwise IP-100,2013-12-19 21:38:00,
2013-12-19 16:43:00,33.2,28.0,29.52,SSW,202,0.0,2.0,78,0.00,,,0.01,Rainwise IP-100,2013-12-19 21:43:00,
2013-12-19 16:48:00,33.0,28.0,29.52,SSW,202,0.0,1.0,79,0.00,,,0.01,Rainwise IP-100,2013-12-19 21:48:00,
2013-12-19 16:53:00,32.8,28.0,29.52,SSW,202,0.0,0.0,79,0.00,,,0.01,Rainwise IP-100,2013-12-19 21:53:00,
2013-12-19 16:58:00,32.7,28.0,29.53,ESE,112,0.0,1.0,80,0.00,,,0.01,Rainwise IP-100,2013-12-19 21:58:00,
2013-12-19 17:03:00,32.5,28.0,29.53,ESE,112,0.0,1.0,81,0.00,,,0.01,Rainwise IP-100,2013-12-19 22:03:00,
2013-12-19 17:08:00,32.3,28.0,29.53,ESE,112,0.0,0.0,82,0.00,,,0.01,Rainwise IP-100,2013-12-19 22:08:00,
2013-12-19 17:14:00,32.2,28.0,29.53,ESE,112,0.0,0.0,82,0.00,,,0.01,Rainwise IP-100,2013-12-19 22:14:00,
2013-12-19 17:19:00,32.1,28.0,29.53,ESE,112,0.0,0.0,83,0.00,,,0.01,Rainwise IP-100,2013-12-19 22:19:00,
2013-12-19 17:24:00,31.9,28.0,29.53,ESE,112,0.0,1.0,83,0.00,,,0.01,Rainwise IP-100,2013-12-19 22:24:00,
2013-12-19 17:29:00,31.8,28.0,29.53,ESE,112,0.0,0.0,84,0.00,,,0.01,Rainwise IP-100,2013-12-19 22:29:00,
2013-12-19 17:34:00,31.8,28.0,29.53,ESE,112,0.0,0.0,84,0.00,,,0.01,Rainwise IP-100,2013-12-19 22:34:00,
2013-12-19 17:39:00,31.7,28.0,29.53,ESE,112,0.0,0.0,84,0.00,,,0.01,Rainwise IP-100,2013-12-19 22:39:00,
2013-12-19 17:44:00,31.6,28.0,29.54,ESE,112,0.0,0.0,84,0.00,,,0.01,Rainwise IP-100,2013-12-19 22:44:00,
2013-12-19 17:49:00,31.5,28.0,29.53,ESE,112,0.0,0.0,85,0.00,,,0.01,Rainwise IP-100,2013-12-19 22:49:00,
2013-12-19 17:54:00,31.4,26.0,29.54,ESE,112,0.0,0.0,85,0.00,,,0.01,Rainwise IP-100,2013-12-19 22:54:00,
2013-12-19 17:59:00,31.2,28.0,29.54,ESE,112,0.0,0.0,86,0.00,,,0.01,Rainwise IP-100,2013-12-19 22:59:00,
2013-12-19 18:04:00,31.1,28.0,29.54,ESE,112,0.0,0.0,86,0.00,,,0.01,Rainwise IP-100,2013-12-19 23:04:00,
2013-12-19 18:09:00,31.1,28.0,29.54,ESE,112,0.0,0.0,86,0.00,,,0.01,Rainwise IP-100,2013-12-19 23:09:00,
2013-12-19 18:56:00,30.9,28.0,29.56,ESE,112,0.0,0.0,87,0.00,,,0.01,Rainwise IP-100,2013-12-19 23:56:00,
2013-12-19 19:01:00,30.8,28.0,29.56,ESE,112,0.0,0.0,87,0.00,,,0.01,Rainwise IP-100,2013-12-20 00:01:00,
2013-12-19 19:06:00,30.8,28.0,29.56,ESE,112,0.0,0.0,87,0.00,,,0.01,Rainwise IP-100,2013-12-20 00:06:00,
2013-12-19 19:11:00,30.8,28.0,29.56,ESE,112,0.0,0.0,87,0.00,,,0.01,Rainwise IP-100,2013-12-20 00:11:00,
2013-12-19 21:46:00,30.6,28.0,29.61,SSW,202,1.4,0.0,90,0.00,,,0.01,Rainwise IP-100,2013-12-20 02:46:00,
2013-12-19 21:51:00,30.6,28.0,29.61,SSW,202,1.4,1.4,90,0.00,,,0.01,Rainwise IP-100,2013-12-20 02:51:00,
2013-12-19 22:01:00,30.6,28.0,29.61,SSW,202,2.1,0.0,90,0.00,,,0.01,Rainwise IP-100,2013-12-20 03:01:00,
2013-12-19 22:06:00,30.6,28.0,29.60,SSW,202,2.3,2.3,90,0.00,,,0.01,Rainwise IP-100,2013-12-20 03:06:00,
2013-12-19 22:11:00,30.6,28.0,29.61,SSW,202,1.2,1.2,91,0.00,,,0.01,Rainwise IP-100,2013-12-20 03:11:00,
2013-12-19 22:16:00,30.7,28.0,29.61,SSW,202,0.0,1.0,91,0.00,,,0.01,Rainwise IP-100,2013-12-20 03:16:00,
2013-12-19 22:21:00,30.8,28.0,29.61,SSW,202,2.3,2.3,90,0.00,,,0.01,Rainwise IP-100,2013-12-20 03:21:00,
2013-12-19 22:26:00,30.9,28.0,29.61,SSW,202,0.0,2.0,90,0.00,,,0.01,Rainwise IP-100,2013-12-20 03:26:00,
2013-12-19 22:31:00,31.0,28.0,29.61,WSW,247,1.2,3.0,90,0.00,,,0.01,Rainwise IP-100,2013-12-20 03:31:00,
2013-12-19 22:36:00,31.0,28.0,29.61,WSW,247,1.2,0.0,90,0.00,,,0.01,Rainwise IP-100,2013-12-20 03:36:00,
2013-12-19 22:41:00,30.9,28.0,29.62,WSW,247,0.0,0.0,90,0.00,,,0.01,Rainwise IP-100,2013-12-20 03:41:00,
2013-12-19 22:46:00,30.9,28.0,29.61,WSW,247,0.0,0.0,90,0.00,,,0.01,Rainwise IP-100,2013-12-20 03:46:00,
2013-12-19 22:51:00,30.7,28.0,29.61,WSW,247,2.3,2.3,91,0.00,,,0.01,Rainwise IP-100,2013-12-20 03:51:00,
2013-12-19 22:56:00,30.7,28.0,29.62,WSW,247,1.2,2.0,91,0.00,,,0.01,Rainwise IP-100,2013-12-20 03:56:00,
2013-12-19 23:01:00,30.5,28.0,29.61,WSW,247,0.0,2.0,91,0.00,,,0.01,Rainwise IP-100,2013-12-20 04:01:00,
2013-12-19 23:07:00,30.5,28.0,29.62,WSW,247,0.0,0.0,91,0.00,,,0.01,Rainwise IP-100,2013-12-20 04:07:00,
2013-12-19 23:12:00,30.6,28.0,29.61,WSW,247,0.0,0.0,91,0.00,,,0.01,Rainwise IP-100,2013-12-20 04:12:00,
2013-12-19 23:17:00,30.6,28.0,29.61,WSW,247,0.0,0.0,91,0.00,,,0.01,Rainwise IP-100,2013-12-20 04:17:00,
2013-12-19 23:22:00,30.6,28.0,29.61,WSW,247,0.0,0.0,91,0.00,,,0.01,Rainwise IP-100,2013-12-20 04:22:00,
2013-12-19 23:27:00,30.4,29.0,29.61,WSW,247,0.0,0.0,92,0.00,,,0.01,Rainwise IP-100,2013-12-20 04:27:00,
2013-12-19 23:32:00,30.4,28.0,29.61,WSW,247,0.0,0.0,91,0.00,,,0.01,Rainwise IP-100,2013-12-20 04:32:00,
2013-12-19 23:37:00,30.4,28.0,29.61,WSW,247,0.0,1.0,91,0.00,,,0.01,Rainwise IP-100,2013-12-20 04:37:00,
2013-12-19 23:42:00,30.5,28.0,29.61,WSW,247,0.0,1.0,91,0.00,,,0.01,Rainwise IP-100,2013-12-20 04:42:00,
2013-12-19 23:47:00,30.5,29.0,29.61,WSW,247,0.0,1.0,92,0.00,,,0.01,Rainwise IP-100,2013-12-20 04:47:00,
2013-12-19 23:52:00,30.7,29.0,29.61,WSW,247,0.0,0.0,92,0.00,,,0.01,Rainwise IP-100,2013-12-20 04:52:00,
2013-12-19 23:57:00,30.6,28.0,29.61,WSW,247,0.0,2.0,91,0.00,,,0.01,Rainwise IP-100,2013-12-20 04:57:00,